Regional Weather Roundup
Issued by NWS Sterling, VA

Home | Current Version | Previous Version | Graphics & Text | Print | Product List | Glossary On
Versions: 1 2 3 4 5 6 7 8 9 10 11 12 13 14 15 16 17 18 19 20 21 22 23 24 25 26 27 28 29 30 31 32 33 34 35 36 37 38 39 40 41 42 43 44 45 46 47 48 49 50
000
ASUS41 KLWX 020610
RWRLWX

REGIONAL WEATHER ROUNDUP
NATIONAL WEATHER SERVICE BALTIMORE MD/WASHINGTON DC
200 AM EDT SUN AUG 02 2015

Note: "FAIR" indicates few or no clouds below 12,000 feet
with no significant weather and/or obstructions to visibility.
 TC=TEMPERATURE CELSIUS

 * =Non NWS site. Station does not report precipitation (e.g. rain,
    snow, etc.), thunder, or fog.

DCZ001-MDZ009-015-VAZ040>042-051-053>054-020700-
WASHINGTON METRO

CITY           SKY/WX    TMP DP  RH WIND       PRES   REMARKS
WASHINGTON NAT PTCLDY    77  60  55 N5        29.92R
DULLES         MOCLDY    68  59  73 CALM      29.93S
ANDREWS AFB    PTCLDY    69  60  73 CALM      29.91R
LEESBURG*      CLOUDY    72  61  68 W8        29.94S
MANASSAS*      PTCLDY    66  66 100 CALM      29.93S
GAITHERSBURG*  PTCLDY    64  57  77 CALM      29.97S

$$

MDZ006>007-011-014-020700-
BALTIMORE METRO

CITY           SKY/WX    TMP DP  RH WIND       PRES   REMARKS
BWI AIRPORT    MOCLDY    69  62  78 CALM      29.91S
MD SCIENCE CTR   N/A     77  58  51 MISG      29.91S
MARTIN STATE   CLEAR     72  64  78 CALM      29.92S
ANNAPOLIS      PTCLDY    75  67  76 NW6       29.90R
FORT MEADE*    MOCLDY    63  61  94 CALM      29.94S

$$

MDZ012-015-019>023-020700-
MARYLAND EASTERN SHORE

CITY           SKY/WX    TMP DP  RH WIND       PRES   REMARKS
OCEAN CITY     MOCLDY    72  66  81 CALM      29.89S
SALISBURY      CLOUDY    74  66  76 CALM      29.89F
BAY BRIDGE AP*   N/A     77  63  61 CALM      29.90S
CAMBRIDGE*     CLEAR     72  68  88 CALM      29.89S
EASTON*        CLEAR     72  72 100 CALM      29.93S

$$

MDZ017>025-020700-
SOUTHERN MARYLAND

CITY           SKY/WX    TMP DP  RH WIND       PRES   REMARKS
PATUXENT RIVER PTCLDY    78  62  57 N9        29.89R
ST INIGOES     PTCLDY    71  69  93 CALM      29.89R
LEONARDTOWN*   PTCLDY    73  64  73 CALM      29.92R

$$

MDZ003>005-020700-
NORTH CENTRAL MARYLAND

CITY           SKY/WX    TMP DP  RH WIND       PRES   REMARKS
FREDERICK*     CLEAR     63  63 100 SE3       29.95S
HAGERSTOWN APT CLEAR     68  56  65 SE6       29.93S
WESTMINSTER*   CLEAR     72  57  60 CALM      29.94R

$$

MDZ501>502-020700-
WESTERN MARYLAND

CITY           SKY/WX    TMP DP  RH WIND       PRES   REMARKS
OAKLAND*       CLEAR     61 N/A N/A SW5       30.06S
CUMBERLAND*    NOT AVBL

$$

VAZ025>031-020700-
SHENANDOAH VALLEY

CITY           SKY/WX    TMP DP  RH WIND       PRES   REMARKS
WINCHESTER*    CLEAR     64  55  72 CALM      29.95S
FRONT ROYAL*   FAIR      64  55  72 S7        29.95R
LURAY*         FAIR      63  59  88 CALM      29.98R
NEW MARKET*    FAIR      59  57  92 CALM      29.97S
STAUNTON*      CLEAR     61  56  85 CALM      30.01R
WAYNESBORO*    FAIR      61  56  84 CALM      30.00S

$$

WVZ021-048>050-054>055-020700-
EASTERN WEST VIRGINIA PANHANDLE

CITY           SKY/WX    TMP DP  RH WIND       PRES   REMARKS
MARTINSBURG    CLEAR     63  56  78 W6        29.94S
PETERSBURG*    CLEAR    N/A N/A N/A CALM      29.98F

$$

VAZ036>039-050-020700-
CENTRAL FOOTHILLS

CITY           SKY/WX    TMP DP  RH WIND       PRES   REMARKS
CHARLOTTESVILL CLEAR     67  60  78 CALM      29.94S
CULPEPER*      CLOUDY    65  64  96 CALM      29.94S
ORANGE*        CLEAR     64  63  94 CALM      29.95S
GORDONSVILLE*  FAIR      63  63 100 CALM      29.93S
WARRENTON*     FAIR      63  63  99 CALM      29.93R

$$

VAZ055>057-020700-
NORTH AND CENTRAL PIEDMONT

CITY           SKY/WX    TMP DP  RH WIND       PRES   REMARKS
FREDERICKSBRG* PTCLDY    72  65  79 CALM      29.91S
STAFFORD*      MOCLDY    64  63  95 CALM      29.96S

$$

NCZ024-NYZ072-PAZ021-071-VAZ022-071-020700-
OTHER REGIONAL OBSERVATIONS

CITY           SKY/WX    TMP DP  RH WIND       PRES   REMARKS
NEW YORK CITY  PTCLDY    76  55  48 W3        29.90R
PHILADELPHIA   PTCLDY    74  62  66 W3        29.89S
PITTSBURGH     FAIR      67  56  67 SW5       29.96S
ROANOKE        CLEAR     64  56  75 NW7       30.01S
RICHMOND       PTCLDY    75  64  68 N8        29.90S
RALEIGH        PTCLDY    74  62  66 CALM      29.93F

$$

ANZ530>537-020700-
MARINE OBSERVATIONS

STATION/POSITION TIME  TEMP    WIND        PRES
                       AIR SEA DIR/SP/G
                 (UTC) (F)     (DEG/KT/KT) (MB)
THOMAS PT LIGHT  NOT AVBL
BALT KEY BRIDGE  0500   80     320/  5/  5 1012.4R
COVE POINT       0500   80     360/ 15/ 17 1012.7R
LEWISETTA        0500   78 85  310/  3/  4 1011.6R
SOLOMONS ISLAND  0500      83                N/A
PINEY POINT      0500           10/  4/  4   N/A

$$



USA.gov is the U.S. government's official web portal to all federal, state and local government web resources and services.